HST

Last updated on Sun Jun 21 2026 00:02:15 GMT+0000 (Coordinated Universal Time)

1 20580U 90037B 26171.07700591 .00005529 00000+0 17304-3 0 9998 2 20580 28.4722 60.8244 0001639 173.2571 186.8048 15.30775367789015
UTC large
Height (km)
Speed (km/s)
/
Latitude / Longitude
Inclination (degrees)
Orbital Period (minutes)
Azimuth
Elevation
Range (km)
Doppler Factor

Next 0 passes for location: London (51.5072 / 0.1276)

No passes found over London.
HST